Date String (YYYY-MM-DD hh:mm:ss) UTC,Instrument flags,Ambient pressure (hPa),Sample flow (lpm),Bypass flow (lpm),Sample temperature (°C),Ambient temperature (°C),ASC tube jacket temperature (°C),LED temperature (°C),Box temperature (°C),Sample RH (%),Span deviation,Mass concentration (μg/m³),Mass concentration (μg/m³),Mass concentration (μg/m³)
DateTimeUTC,F1_M11,P_M11,Q1_M11,Q2_M11,T1_M11,T2_M11,T3_M11,T4_M11,T5_M11,U1_M11,ZSPAN_M11,X2_M11,X0_M11,X1_M11
2022-12-21 09:00:00,,0822.0,5.04,0.00,21.7,20.3,00.0,30.6,23.4,10.8,-000.1,0008.52,0013.36,0007.60
2022-12-21 09:01:00,,0822.0,5.00,0.00,21.8,21.3,00.0,30.5,23.6,11.0,-000.1,0008.01,0013.50,0007.10
2022-12-21 09:02:00,,0822.0,4.99,0.00,21.9,22.0,00.0,30.6,23.8,11.2,-000.7,0008.40,0013.71,0007.45
2022-12-21 09:03:00,,0821.9,4.97,0.00,21.9,21.6,00.0,30.6,23.8,11.3,-001.1,0009.18,0014.84,0008.17
2022-12-21 09:04:00,,0822.0,5.02,0.00,21.9,21.2,00.0,30.6,23.7,11.3,-001.1,0010.33,0017.08,0009.26
2022-12-21 09:05:00,,0822.1,5.02,0.00,21.8,20.9,00.0,30.7,23.6,11.3,-000.9,0010.63,0018.47,0009.57
2022-12-21 09:06:00,,0822.1,4.95,0.00,21.8,20.6,00.0,30.7,23.5,11.5,-000.3,0011.30,0020.47,0010.12
2022-12-21 09:07:00,,0822.0,5.02,0.00,21.8,20.4,00.0,30.7,23.5,11.6,-000.3,0012.06,0021.59,0010.82
2022-12-21 09:08:00,,0822.0,5.01,0.00,21.8,20.2,00.0,30.7,23.4,11.6,-000.7,0013.22,0023.22,0011.82
2022-12-21 09:09:00,,0822.1,4.98,0.00,21.8,20.1,00.0,30.7,23.4,11.6,-000.6,0014.49,0024.77,0013.07
2022-12-21 09:10:00,,0822.1,4.99,0.00,21.7,20.0,00.0,30.7,23.4,11.6,-000.7,0015.80,0026.61,0014.29
2022-12-21 09:11:00,,0822.1,5.04,0.00,21.7,20.0,00.0,30.7,23.4,11.7,-000.3,0017.17,0028.30,0015.57
2022-12-21 09:12:00,,0822.1,4.99,0.00,21.7,20.0,00.0,30.6,23.3,11.7,-000.4,0018.23,0029.49,0016.55
2022-12-21 09:13:00,,0822.3,4.96,0.00,21.7,19.9,00.0,30.6,23.3,11.7,-000.3,0018.38,0030.20,0016.72
2022-12-21 09:14:00,,0822.2,5.03,0.00,21.7,20.4,00.0,30.6,23.4,11.4,-000.2,0018.28,0030.32,0016.65
2022-12-21 09:15:00,,0822.2,5.00,0.00,21.7,21.4,00.0,30.5,23.6,11.2,-000.1,0018.11,0029.33,0016.47
2022-12-21 09:16:00,,0822.2,4.99,0.00,21.8,22.0,00.0,30.6,23.8,10.9,-000.4,0017.71,0029.04,0016.13
2022-12-21 09:17:00,,0822.2,4.96,0.00,21.9,21.6,00.0,30.6,23.8,10.6,-000.7,0016.90,0027.99,0015.43
2022-12-21 09:18:00,,0822.2,5.04,0.00,21.9,21.3,00.0,30.6,23.7,10.5,-000.5,0015.95,0027.26,0014.55
2022-12-21 09:19:00,,0822.2,4.99,0.00,21.9,21.0,00.0,30.7,23.6,10.3,-000.4,0014.98,0027.16,0013.69
2022-12-21 09:20:00,,0822.1,5.00,0.00,21.8,20.7,00.0,30.7,23.6,10.3,-000.8,0014.14,0026.53,0012.85
2022-12-21 09:21:00,,0822.1,5.03,0.00,21.8,20.6,00.0,30.7,23.5,10.5,-000.6,0013.08,0025.14,0011.89
2022-12-21 09:22:00,,0822.1,4.98,0.00,21.8,20.5,00.0,30.7,23.5,10.6,-001.1,0011.93,0023.61,0010.81
2022-12-21 09:23:00,,0822.0,4.99,0.00,21.8,20.4,00.0,30.7,23.5,10.7,-001.3,0010.69,0021.50,0009.69
2022-12-21 09:24:00,,0822.0,5.03,0.00,21.8,20.3,00.0,30.7,23.5,10.7,-001.4,0009.49,0019.12,0008.58
2022-12-21 09:25:00,,0822.0,5.00,0.00,21.7,20.2,00.0,30.6,23.4,10.8,-001.1,0008.33,0017.13,0007.53
2022-12-21 09:26:00,,0821.8,4.96,0.00,21.7,20.2,00.0,30.6,23.4,11.1,0000.0,0007.13,0015.50,0006.47
2022-12-21 09:27:00,,0821.9,5.03,0.00,21.7,20.1,00.0,30.6,23.3,11.1,0000.0,0006.18,0013.34,0005.58
2022-12-21 09:28:00,,0821.9,5.03,0.00,21.7,20.1,00.0,30.6,23.3,11.1,0000.0,0005.43,0011.19,0004.93
2022-12-21 09:29:00,,0821.8,4.96,0.00,21.7,21.1,00.0,30.6,23.5,11.0,0000.0,0004.83,0009.78,0004.38
2022-12-21 09:30:00,,0821.8,5.04,0.00,21.8,22.0,00.0,30.6,23.8,10.9,0000.0,0004.24,0008.28,0003.82
2022-12-21 09:31:00,,0821.8,4.96,0.00,21.9,21.8,00.0,30.6,23.8,10.9,0000.0,0003.66,0007.02,0003.29
2022-12-21 09:32:00,,0821.8,5.04,0.00,21.9,21.3,00.0,30.6,23.7,10.8,0000.0,0003.26,0005.91,0002.79
2022-12-21 09:33:00,,0821.7,4.95,0.00,21.8,20.8,00.0,30.7,23.6,10.8,0000.0,0002.76,0005.05,0002.23
2022-12-21 09:34:00,,0821.7,5.03,0.00,21.8,20.5,00.0,30.7,23.4,10.8,0000.0,0002.17,0004.31,0001.73
2022-12-21 09:35:00,,0821.7,5.02,0.00,21.7,20.2,00.0,30.7,23.3,10.9,0000.0,0001.64,0003.84,0001.24
2022-12-21 09:36:00,,0821.7,4.95,0.00,21.7,19.9,00.0,30.6,23.2,10.9,0000.0,0001.24,0003.55,0000.84
2022-12-21 09:37:00,,0821.7,5.01,0.00,21.6,19.7,00.0,30.6,23.1,10.8,0000.0,0001.08,0003.38,0000.68
2022-12-21 09:38:00,,0821.6,5.01,0.00,21.5,19.6,00.0,30.6,23.1,11.0,0000.0,0001.13,0003.46,0000.68
2022-12-21 09:39:00,,0821.5,5.02,0.00,21.5,19.4,00.0,30.6,23.0,11.0,0000.0,0001.19,0003.61,0000.68
2022-12-21 09:40:00,,0821.6,4.98,0.00,21.4,19.3,00.0,30.5,22.9,11.0,0000.0,0001.16,0003.56,0000.67
2022-12-21 09:41:00,,0821.5,4.99,0.00,21.4,19.5,00.0,30.5,22.9,11.1,0000.0,0001.15,0002.92,0000.68
2022-12-21 09:42:00,,0821.5,5.04,0.00,21.5,20.8,00.0,30.4,23.2,11.0,0000.0,0001.13,0002.20,0000.68
2022-12-21 09:43:00,,0821.6,4.97,0.00,21.6,21.7,00.0,30.4,23.5,11.0,0000.0,0001.15,0002.29,0000.68
2022-12-21 09:44:00,,0821.5,5.03,0.00,21.6,21.3,00.0,30.5,23.4,10.9,0000.0,0001.17,0002.31,0000.68
2022-12-21 09:45:00,,0821.6,4.95,0.00,21.6,20.8,00.0,30.5,23.3,10.9,0000.0,0001.19,0002.38,0000.69
2022-12-21 09:46:00,,0821.6,5.04,0.00,21.6,20.3,00.0,30.5,23.2,11.0,0000.0,0001.18,0002.32,0000.69
2022-12-21 09:47:00,,0821.7,5.00,0.00,21.5,20.0,00.0,30.5,23.1,11.0,0000.0,0001.15,0002.14,0000.68
2022-12-21 09:48:00,,0821.6,4.98,0.00,21.5,19.8,00.0,30.5,23.1,11.0,0000.0,0001.13,0002.12,0000.68
2022-12-21 09:49:00,,0821.5,5.05,0.00,21.4,19.6,00.0,30.5,23.0,11.0,0000.0,0001.07,0001.98,0000.67
2022-12-21 09:50:00,,0821.6,5.05,0.00,21.4,19.4,00.0,30.4,22.9,11.1,0000.0,0001.06,0001.92,0000.67
2022-12-21 09:51:00,,0821.5,4.97,0.00,21.3,19.2,00.0,30.4,22.9,11.1,0000.0,0001.07,0001.96,0000.67
2022-12-21 09:52:00,,0821.5,4.99,0.00,21.3,19.1,00.0,30.4,22.8,11.1,0000.0,0001.09,0002.00,0000.68
2022-12-21 09:53:00,,0821.6,5.02,0.00,21.2,19.2,00.0,30.3,22.8,11.0,0000.0,0001.10,0002.07,0000.68
2022-12-21 09:54:00,,0821.5,5.01,0.00,21.3,20.4,00.0,30.3,23.0,11.0,0000.0,0001.09,0002.06,0000.69
2022-12-21 09:55:00,,0821.6,4.98,0.00,21.4,21.5,00.0,30.2,23.3,11.0,0000.0,0001.07,0002.03,0000.69
2022-12-21 09:56:00,,0821.4,5.00,0.00,21.5,21.3,00.0,30.3,23.3,11.0,0000.0,0001.05,0001.97,0000.69
2022-12-21 09:57:00,,0821.4,4.99,0.00,21.4,20.7,00.0,30.3,23.1,11.0,0000.0,0001.06,0002.01,0000.70
2022-12-21 09:58:00,,0821.4,5.02,0.00,21.4,20.2,00.0,30.3,23.0,11.0,0000.0,0001.08,0002.06,0000.71
2022-12-21 09:59:00,,0821.4,5.00,0.00,21.3,19.8,00.0,30.3,22.9,11.0,0000.0,0001.09,0002.05,0000.72
